Content
SEND FEEDBACK

Daily
Averages
Monthly
Summary
Mexico

PUEBLA - JARDINES DE SAN MANUEL, PUEBLA


Home > North America > Mexico > Puebla
Elevation: 6962 feet     Latitude: 19 00N     Longitude: 098 11W

WEATHER
 
SELECT A DAY
Number of Records: 120,721;   Date Range: 1/1/95 - 7/8/14
 
SHARE

PRINT THIS DATA

[ ← Previous Day ]
WEATHER ALMANAC - FEBRUARY 20, 2013
[ Next Day → ]
[ °C ]   °F
Weather ElementAverageHighLow
Temperature62.5 °F79 °F (2:50 pm)39.2 °F (6:03 am)
Dewpoint22.5 °F34 °F (8:50 am)17.6 °F (11:42 am)
Humidity22.4 %56 % (6:03 am)7 % (5:50 pm)
Barometer30.12 in30.36 in (8:40 am)29.58 in (8:45 pm)
Wind Speed7.8 mph18.4 mph (4:40 pm)
Wind Gust23 mph (1:41 pm)
Weather ElementAverage
Visibility8.2 mi
Wind DirectionSSW (197.5 °)

Weather ElementTotal
Precipitation---
Heating Degree Days5.9 (Base 65)
Growing Degree Days9.1 (Base 50)
Averaged from 26 records on February 20, 2013
WEATHER CONDITIONS BREAKOUT
WIND DIRECTION BREAKOUT
WEATHER BY HOUR - FEBRUARY 20, 2013
[ °C ]   °F
Local TimeTemperatureDewpointHumidityBarometerVisibilityWind DirectionWind SpeedGust SpeedPrecipitationEventsConditions
5:58 AM48.0 °F23.0 °F25 %29.86 in3.0 miCalm
6:03 AM39.2 °F24.8 °F56 %30.26 in7.0 miNW (310°)6.9 mphClear
6:40 AM39.2 °F23.0 °F52 %30.32 in8.0 miWNW (300°)3.5 mphClear
7:40 AM42.8 °F26.6 °F53 %30.34 in8.0 miNNW (340°)6.9 mphClear
8:40 AM51.8 °F28.4 °F41 %30.36 in8.0 miNNW (330°)5.8 mphClear
8:50 AM59.0 °F34.0 °F27 %30.02 in3.0 miCalmHaze
9:42 AM64.4 °F23.0 °F21 %30.36 in8.0 miNE (40°)4.6 mphClear
10:40 AM69.8 °F23.0 °F17 %30.34 in8.0 miSouth (180°)5.8 mphClear
11:42 AM71.6 °F17.6 °F13 %30.31 in9.0 miSouth (170°)12.7 mphPartly Cloudy
11:50 AM73.0 °F31.0 °F12 %29.91 in3.0 miESE (120°)4.5 mphHaze
12:40 PM73.4 °F19.4 °F13 %30.27 in10.0 miSSE (160°)15.0 mphPartly Cloudy
1:41 PM75.2 °F21.2 °F13 %30.23 in10.0 miSSE (160°)11.5 mph23.0 mphScattered Clouds
2:40 PM75.2 °F19.4 °F12 %30.20 in11.0 miSouth (180°)11.5 mphScattered Clouds
2:50 PM79.0 °F29.0 °F8 %29.72 in9.0 miSouth (180°)8.9 mphHaze
3:40 PM77.0 °F19.4 °F12 %30.18 in11.0 miSouth (180°)11.5 mphMostly Cloudy
4:40 PM75.2 °F17.6 °F11 %30.16 in11.0 miSouth (190°)18.4 mphScattered Clouds
5:40 PM71.6 °F19.4 °F14 %30.17 in11.0 miSSW (200°)15.0 mphPartly Cloudy
5:50 PM77.0 °F26.0 °F7 %29.59 in9.0 miSouth (180°)8.9 mphHaze
6:42 PM66.2 °F17.6 °F15 %30.18 in10.0 miSSW (200°)12.7 mphPartly Cloudy
7:42 PM57.2 °F21.2 °F25 %30.20 in10.0 miSSE (160°)11.5 mphPartly Cloudy
8:40 PM59.0 °F17.6 °F20 %30.22 in10.0 miSSW (200°)9.2 mphClear
8:45 PM64.0 °F29.58 in3.0 miEast (90°)2.2 mph
9:46 PM57.2 °F17.6 °F21 %30.22 in10.0 miWSW (240°)4.6 mphClear
10:40 PM51.8 °F19.4 °F28 %30.23 in10.0 miWNW (290°)3.5 mphPartly Cloudy
11:41 PM50.0 °F19.4 °F30 %30.24 in9.0 miWNW (300°)4.6 mphPartly Cloudy
11:45 PM58.0 °F23.0 °F15 %29.64 in3.0 miNE (40°)2.2 mph
Hourly data recorded from MMPB, located miles away from Puebla - Jardines de San Manuel, Puebla







STORIES FROM OUR PARTNERS